Location: Bad Salzschlirf
(50.3750°N, 9.3000°E)
Time: 17:52:21
(UTC+02:00)

ISS - Pass Details

Date: 27 May 2020
Orbit: 417 x 420 km, 51.6° (Epoch: 26 May)

Event Time Altitude Azimuth Distance (km) Brightness Sun altitude
Rises 00:44:47 0° 282° (WNW) 2,367 0.3 -17.9°
Reaches altitude 10° 00:47:32 10° 258° (WSW) 1,499 -1.0 -17.9°
Enters shadow 00:48:01 12° 250° (WSW) 1,393 -1.2 -17.9°
